Location: Seasalter
(51.3333°N, 1.0167°E)
Time: 11:25:05
(UTC+00:00)

Cosmos 2322 Rocket - Pass Details

Date: 26 September 2023
Orbit: 831 x 852 km, 71.0° (Epoch: 28 November)

Event Time Altitude Azimuth Distance (km) Brightness Sun altitude
Rises 03:40:12 0° 327° (NNW) 3,398 5.3 -20.2°
Reaches altitude 10° 03:42:40 10° 324° (NW) 2,462 4.5 -19.8°
Maximum altitude 03:48:10 56° 247° (WSW) 999 2.2 -19.0°
Drops below altitude 10° 03:53:40 10° 171° (S) 2,460 4.5 -18.2°
Sets 03:56:09 0° 167° (SSE) 3,394 5.3 -17.9°
